Search for airport 
image banner adimage banner ad
image banner ad

SVLK - La Vieja

Located in Anzoategui, Venezuela

ICAO - SVLK, IATA -

Data provided by Airmate  

General information

Coordinates: N9°41'0" W64°11'0"
Elevation is 296 feet MSL.
 
View others Airports in Apure

Operational data

Open for public use
Current time UTC:
Current local time:
TAF: TAF SVBC 252200Z 2600/2700 11003KT 9999 SCT016 TX32/2518Z TN25/2507Z BECMG 2600/2604 14005KT 9999 BKN016
View NOTAMs / SUP AIP / TFR affecting this airport [VIEW]
Communications frequencies: [VIEW]

Runways:

RWY identifierQFULength (ft)Width (ft)SurfaceLDA (ft)
1000
2800

Airport contact information

Address: Anzoategui Venezuela

Satellite view of SVLK